Location: Ferchesar
(52.6477°N, 12.4298°E)
Time: 22:25:27
(UTC+01:00)

TIGRISAT - Pass Details

Date: 18 October 2021
Orbit: 603 x 689 km, 97.7° (Epoch: 30 November)

Event Time Altitude Azimuth Distance (km) Brightness Sun altitude
Rises 22:10:49 0° 3° (N) 3,025 ? -36.0°
Reaches altitude 10° 22:13:54 10° 341° (NNW) 2,089 ? -36.3°
Maximum altitude 22:16:28 15° 306° (NW) 1,749 ? -36.6°
Drops below altitude 10° 22:19:01 10° 271° (W) 2,051 ? -36.9°
Sets 22:22:01 0° 249° (WSW) 2,937 ? -37.3°
